FW7194 Weather Reports


time (UTC)temp
C
wind
direction
speed
KPH
gust
KPH
rain 1hr
cm
rain 24hr
cm
rain mn
cm
humidity
%
barometer
mb
20260906114103 22 188 0.0 0.0 0.00 0.00 0.00 93 1011.3
20260906113603 22 206 0.0 0.0 0.00 0.00 0.00 93 1011.4
20260906113057 22 207 0.0 0.0 0.00 0.00 0.00 93 1011.2
20260906112551 22 215 0.0 0.0 0.00 0.00 0.00 93 1011.1
20260906112048 22 221 0.0 0.0 0.00 0.00 0.00 93 1011.1
20260906111548 22 223 0.0 0.0 0.00 0.00 0.00 93 1011.1
20260906111043 22 229 0.0 0.0 0.00 0.00 0.00 93 1011.1
20260906110543 22 223 0.0 0.0 0.00 0.00 0.00 93 1011.1
20260906110042 22 223 0.0 0.0 0.00 0.00 0.00 93 1011.0
20260906105537 22 224 0.0 0.0 0.00 0.00 0.00 93 1010.9
20260906105033 22 223 0.0 0.0 0.00 0.00 0.00 93 1011.0
20260906104532 22 225 0.0 0.0 0.00 0.00 0.00 93 1010.8
20260906104027 22 238 0.0 0.0 0.00 0.00 0.00 93 1010.7
20260906103525 22 254 0.0 0.0 0.00 0.00 0.00 93 1010.6
20260906103020 23 226 0.0 0.0 0.00 0.00 0.00 93 1010.6
20260906102520 23 223 0.0 0.0 0.00 0.00 0.00 93 1010.6
20260906102015 23 224 0.0 0.0 0.00 0.00 0.00 93 1010.5
20260906101509 23 225 0.0 0.0 0.00 0.00 0.00 93 1010.5
20260906101004 23 161 0.0 0.0 0.00 0.00 0.00 93 1010.7
20260906100459 23 212 0.0 0.0 0.00 0.00 0.00 93 1010.3
20260906095954 23 225 0.0 0.0 0.00 0.00 0.00 93 1010.5
20260906095449 23 236 0.0 0.0 0.00 0.00 0.00 93 1010.3
20260906094944 23 232 0.0 0.0 0.00 0.00 0.00 93 1010.4
20260906094438 23 114 0.0 0.0 0.00 0.00 0.00 93 1010.3
20260906093934 23 162 0.0 0.0 0.00 0.00 0.00 93 1010.3
20260906093430 23 216 0.0 0.0 0.00 0.00 0.00 93 1010.1
20260906092930 23 218 0.0 0.0 0.00 0.00 0.00 93 1010.1
20260906092430 23 111 0.0 0.0 0.00 0.00 0.00 93 1009.9
20260906091925 23 109 0.0 0.0 0.00 0.00 0.00 93 1010.1
20260906091421 23 223 0.0 0.0 0.00 0.00 0.00 92 1010.1
20260906090917 23 230 0.0 0.0 0.00 0.00 0.00 92 1010.1
20260906090412 23 233 0.0 0.0 0.00 0.00 0.00 92 1010.0
20260906085907 23 213 0.0 0.0 0.00 0.00 0.00 92 1010.1
20260906085405 23 226 0.0 0.0 0.00 0.00 0.00 92 1010.1
20260906084859 23 222 0.0 0.0 0.00 0.00 0.00 92 1010.0
20260906084354 23 231 0.0 0.0 0.00 0.00 0.00 92 1010.0
20260906083848 23 232 0.0 0.0 0.00 0.00 0.00 92 1010.1
20260906083344 23 234 0.0 0.0 0.00 0.00 0.00 92 1010.2
20260906082844 23 233 0.0 0.0 0.00 0.00 0.00 92 1010.0
20260906082338 24 233 0.0 0.0 0.00 0.00 0.00 92 1010.1
20260906081835 24 239 0.0 0.0 0.00 0.00 0.00 92 1010.1
20260906081330 24 241 0.0 0.0 0.00 0.00 0.00 92 1009.9
20260906080826 24 208 0.0 0.0 0.00 0.00 0.00 92 1010.1
20260906080322 24 207 0.0 0.0 0.00 0.00 0.00 92 1010.3
20260906075821 24 189 0.0 0.0 0.00 0.00 0.00 92 1010.3
20260906075316 24 185 0.0 1.6 0.00 0.00 0.00 92 1010.4
20260906074811 24 15 0.0 1.6 0.00 0.00 0.00 92 1010.2
20260906074311 24 14 0.0 0.0 0.00 0.00 0.00 92 1010.1
20260906073810 25 15 0.0 0.0 0.00 0.00 0.00 92 1010.1
20260906073305 25 16 0.0 0.0 0.00 0.00 0.00 92 1010.2
20260906072802 25 16 0.0 0.0 0.00 0.00 0.00 92 1010.1
20260906072257 25 16 0.0 0.0 0.00 0.00 0.00 92 1010.2
20260906071753 25 16 0.0 0.0 0.00 0.00 0.00 92 1010.2
20260906071252 25 16 0.0 0.0 0.00 0.00 0.00 92 1010.2
20260906070749 25 16 0.0 0.0 0.00 0.00 0.00 92 1010.4
20260906070244 25 17 0.0 0.0 0.00 0.00 0.00 91 1010.7
20260906065744 25 16 0.0 0.0 0.00 0.00 0.00 91 1010.9
20260906065239 25 16 0.0 0.0 0.00 0.00 0.00 91 1011.0
20260906064735 25 16 0.0 0.0 0.00 0.00 0.00 91 1011.0
20260906064230 25 16 0.0 0.0 0.00 0.00 0.00 91 1010.8
20260906063725 25 16 0.0 0.0 0.00 0.00 0.00 91 1010.7
20260906063221 25 16 0.0 0.0 0.00 0.00 0.00 91 1010.7
20260906062716 26 16 0.0 0.0 0.00 0.00 0.00 91 1010.7
20260906062215 26 16 0.0 0.0 0.00 0.00 0.00 91 1010.7
20260906061711 26 16 0.0 0.0 0.00 0.00 0.00 91 1010.9
20260906061207 26 16 0.0 0.0 0.00 0.00 0.00 91 1011.0
20260906060657 26 16 0.0 0.0 0.00 0.00 0.00 91 1011.1
20260906060154 26 16 0.0 0.0 0.00 0.00 0.00 91 1011.0
20260906055649 26 17 0.0 0.0 0.00 0.00 0.00 91 1010.8
20260906055144 26 17 0.0 0.0 0.00 0.00 0.00 91 1010.9
20260906054640 26 17 0.0 0.0 0.00 0.00 0.00 91 1010.9
20260906054134 26 17 0.0 0.0 0.00 0.00 0.00 91 1010.9
20260906053631 26 17 0.0 0.0 0.00 0.00 0.00 91 1011.2
20260906053131 26 17 0.0 0.0 0.00 0.00 0.00 91 1011.2
20260906052627 26 17 0.0 0.0 0.00 0.00 0.00 91 1011.2
20260906052124 27 17 0.0 0.0 0.00 0.00 0.00 91 1011.0
20260906051620 27 17 0.0 0.0 0.00 0.00 0.00 91 1011.0
20260906051114 27 17 0.0 0.0 0.00 0.00 0.00 91 1011.1
20260906050610 27 17 0.0 0.0 0.00 0.00 0.00 91 1011.1
20260906050105 27 17 0.0 0.0 0.00 0.00 0.00 91 1011.2
20260906045603 27 17 0.0 0.0 0.00 0.00 0.00 91 1011.1
20260906045059 27 15 0.0 0.0 0.00 0.00 0.00 91 1011.3
20260906044554 27 16 0.0 0.0 0.00 0.00 0.00 91 1011.2
20260906044049 27 7 0.0 1.6 0.00 0.00 0.00 91 1011.4
20260906043545 27 120 1.6 1.6 0.00 0.00 0.00 91 1011.5
20260906043041 27 226 0.0 0.0 0.00 0.00 0.00 91 1011.5
20260906042540 27 17 0.0 1.6 0.00 0.00 0.00 91 1011.7
20260906042034 27 83 0.0 3.2 0.00 0.00 0.00 91 1011.7
20260906041531 27 226 0.0 0.0 0.00 0.00 0.00 91 1011.6
20260906041031 27 226 0.0 0.0 0.00 0.00 0.00 91 1011.8
20260906040520 27 191 0.0 0.0 0.00 0.00 0.00 91 1011.7
20260906040016 27 227 0.0 0.0 0.00 0.00 0.00 91 1011.7
20260906035511 27 208 0.0 0.0 0.00 0.00 0.00 91 1011.7
20260906035007 27 219 0.0 0.0 0.00 0.00 0.00 90 1011.7
20260906034506 27 229 0.0 0.0 0.00 0.00 0.00 90 1011.7
20260906033956 27 228 0.0 0.0 0.00 0.00 0.00 90 1011.7
20260906033456 27 207 0.0 0.0 0.00 0.00 0.00 90 1011.7
20260906032951 27 227 0.0 0.0 0.00 0.00 0.00 90 1011.6
20260906032449 27 237 0.0 0.0 0.00 0.00 0.00 90 1011.6
20260906031948 27 245 0.0 0.0 0.00 0.00 0.00 90 1011.6
20260906031443 27 216 3.2 3.2 0.00 0.00 0.00 90 1011.3
20260906030939 27 266 0.0 0.0 0.00 0.00 0.00 90 1011.5
20260906030434 27 267 1.6 1.6 0.00 0.00 0.00 90 1011.6
20260906025934 27 235 0.0 1.6 0.00 0.00 0.00 90 1011.6
20260906025428 27 148 1.6 4.8 0.00 0.00 0.00 90 1011.4
20260906024927 27 296 1.6 3.2 0.00 0.00 0.00 89 1011.4
20260906024426 27 227 1.6 4.8 0.00 0.00 0.00 89 1011.4
20260906023922 27 230 0.0 0.0 0.00 0.00 0.00 89 1011.2
20260906023418 27 218 1.6 8.0 0.00 0.00 0.00 89 1011.0
20260906022918 27 224 0.0 4.8 0.00 0.00 0.00 89 1011.0
20260906022413 28 212 3.2 4.8 0.00 0.00 0.00 89 1011.0
20260906021909 27 209 4.8 4.8 0.00 0.00 0.00 89 1010.7
20260906021408 27 217 3.2 4.8 0.00 0.00 0.00 89 1010.6
20260906020903 28 221 6.4 9.7 0.00 0.00 0.00 89 1010.3
20260906020357 27 197 6.4 8.0 0.00 0.00 0.00 88 1010.9
20260906015852 28 182 0.0 0.0 0.00 0.00 0.00 88 1010.9
20260906015351 28 254 0.0 0.0 0.00 0.00 0.00 88 1011.1
20260906014850 28 229 0.0 0.0 0.00 0.00 0.00 88 1010.8
20260906014345 28 332 1.6 1.6 0.00 0.00 0.00 88 1010.4
20260906013841 28 223 0.0 4.8 0.00 0.00 0.00 88 1009.9
20260906013336 28 208 6.4 9.7 0.00 0.00 0.00 88 1009.7
20260906012832 28 227 3.2 8.0 0.00 0.00 0.00 88 1009.9
20260906012327 28 197 4.8 9.7 0.00 0.00 0.00 87 1010.0
20260906011826 28 199 4.8 4.8 0.00 0.00 0.00 87 1010.6
20260906011321 28 206 3.2 3.2 0.00 0.00 0.00 87 1010.7
20260906010817 28 337 0.0 3.2 0.00 0.00 0.00 87 1011.1
20260906010313 28 196 1.6 3.2 0.00 0.00 0.00 87 1010.8
20260906005808 28 214 0.0 3.2 0.00 0.00 0.00 87 1010.8
20260906005307 28 207 3.2 4.8 0.00 0.00 0.00 87 1011.2
20260906004806 28 282 1.6 3.2 0.00 0.00 0.00 86 1010.9
20260906004301 28 214 4.8 8.0 0.00 0.00 0.00 86 1010.8
20260906003756 28 193 3.2 8.0 0.00 0.00 0.00 86 1010.9
20260906003252 28 232 3.2 8.0 0.00 0.00 0.00 86 1011.2
20260906002747 28 209 4.8 9.7 0.00 0.00 0.00 86 1011.0
20260906002246 28 224 8.0 11.3 0.00 0.00 0.00 86 1011.1
20260906001742 28 175 3.2 3.2 0.00 0.00 0.00 86 1011.3
20260906001237 28 204 4.8 8.0 0.00 0.00 0.00 85 1011.3
20260906000732 28 236 1.6 3.2 0.00 0.00 0.00 85 1011.4
20260906000234 28 237 1.6 3.2 0.00 0.00 0.00 85 1011.4
20260905235733 28 197 6.4 9.7 0.00 0.00 0.00 85 1011.3
20260905235227 28 207 4.8 9.7 0.00 0.00 0.00 85 1011.2
20260905234723 28 220 8.0 11.3 0.00 0.00 0.00 85 1011.1
20260905234218 29 185 4.8 9.7 0.00 0.00 0.00 85 1011.2
20260905233713 29 230 1.6 4.8 0.00 0.00 0.00 85 1011.2
20260905233212 29 249 6.4 11.3 0.00 0.00 0.00 84 1011.4
20260905232707 29 194 0.0 12.9 0.00 0.00 0.00 84 1011.3
20260905232203 29 228 8.0 9.7 0.00 0.00 0.00 84 1011.1
20260905231658 30 212 11.3 14.5 0.00 0.00 0.00 84 1011.1
20260905231154 30 163 1.6 9.7 0.00 0.00 0.00 84 1011.1
20260905230650 30 222 1.6 11.3 0.00 0.00 0.00 83 1011.1
20260905230148 30 201 4.8 9.7 0.00 0.00 0.00 83 1011.0
20260905225647 30 211 8.0 11.3 0.00 0.00 0.00 83 1011.0
20260905225142 30 203 9.7 14.5 0.00 0.00 0.00 83 1011.1
20260905224641 30 197 4.8 8.0 0.00 0.00 0.00 83 1011.1
20260905224136 30 199 8.0 14.5 0.00 0.00 0.00 83 1011.0
20260905223633 30 225 11.3 12.9 0.00 0.00 0.00 83 1011.2
20260905223129 30 244 9.7 11.3 0.00 0.00 0.00 83 1010.7
20260905222624 30 196 9.7 12.9 0.00 0.00 0.00 82 1010.7
20260905222114 30 211 0.0 4.8 0.00 0.00 0.00 82 1010.7
20260905221609 30 206 6.4 16.1 0.00 0.00 0.00 82 1010.6
20260905221105 30 199 1.6 8.0 0.00 0.00 0.00 82 1010.8
20260905220600 30 195 1.6 14.5 0.00 0.00 0.00 82 1010.8
20260905220051 30 197 9.7 14.5 0.00 0.00 0.00 82 1010.7
20260905215550 30 214 9.7 14.5 0.00 0.00 0.00 82 1010.6
20260905215046 30 174 3.2 14.5 0.00 0.00 0.00 82 1010.8
20260905214542 30 183 8.0 14.5 0.00 0.00 0.00 82 1010.6
20260905214036 30 217 8.0 16.1 0.00 0.00 0.00 82 1010.6
20260905213532 30 207 8.0 16.1 0.00 0.00 0.00 81 1010.7
20260905213027 30 243 12.9 16.1 0.00 0.00 0.00 81 1010.7
20260905212522 31 212 6.4 17.7 0.00 0.00 0.00 81 1010.7
20260905212022 31 217 11.3 16.1 0.00 0.00 0.00 81 1010.7
20260905211517 31 189 8.0 16.1 0.00 0.00 0.00 81 1010.5
20260905211013 31 180 9.7 14.5 0.00 0.00 0.00 80 1010.3
20260905210509 31 189 14.5 22.5 0.00 0.00 0.00 80 1010.5
20260905210008 31 167 11.3 17.7 0.00 0.00 0.00 80 1010.4
20260905205503 31 233 9.7 16.1 0.00 0.00 0.00 80 1010.3
20260905205001 31 239 6.4 17.7 0.00 0.00 0.00 80 1010.6
20260905204457 31 215 8.0 12.9 0.00 0.00 0.00 79 1010.2
20260905203956 31 253 9.7 14.5 0.00 0.00 0.00 79 1010.3
20260905203452 31 194 9.7 14.5 0.00 0.00 0.00 79 1010.1
20260905202947 31 207 8.0 20.9 0.00 0.00 0.00 79 1010.1
20260905202442 31 189 11.3 16.1 0.00 0.00 0.00 79 1010.1
20260905201938 31 198 11.3 16.1 0.00 0.00 0.00 79 1010.2
20260905201433 31 239 6.4 14.5 0.00 0.00 0.00 79 1010.0
20260905200933 32 203 4.8 14.5 0.00 0.00 0.00 78 1010.2
20260905200429 32 211 14.5 17.7 0.00 0.00 0.00 78 1010.1
20260905195927 32 221 12.9 17.7 0.00 0.00 0.00 78 1010.1
20260905195422 32 222 3.2 11.3 0.00 0.00 0.00 78 1010.4
20260905194918 32 248 6.4 12.9 0.00 0.00 0.00 78 1010.2
20260905194417 32 229 9.7 12.9 0.00 0.00 0.00 78 1010.4
20260905193917 32 195 8.0 11.3 0.00 0.00 0.00 78 1010.4
20260905193412 32 235 3.2 8.0 0.00 0.00 0.00 78 1010.2
20260905192907 32 176 8.0 11.3 0.00 0.00 0.00 77 1010.6
20260905192403 32 224 3.2 16.1 0.00 0.00 0.00 78 1010.5
20260905191903 32 204 1.6 11.3 0.00 0.00 0.00 77 1010.8
20260905191402 32 258 3.2 11.3 0.00 0.00 0.00 77 1010.7
20260905190856 32 214 4.8 9.7 0.00 0.00 0.00 77 1010.9
20260905190354 32 228 4.8 8.0 0.00 0.00 0.00 76 1011.0
20260905185853 32 276 1.6 9.7 0.00 0.00 0.00 76 1011.0
20260905185349 32 247 0.0 4.8 0.00 0.00 0.00 76 1011.3
20260905184848 32 201 3.2 4.8 0.00 0.00 0.00 76 1011.4
20260905184347 32 251 4.8 8.0 0.00 0.00 0.00 76 1011.3
20260905183845 32 232 6.4 9.7 0.00 0.00 0.00 76 1011.6
20260905183341 32 235 4.8 11.3 0.00 0.00 0.00 76 1011.5
20260905182836 32 233 0.0 3.2 0.00 0.00 0.00 75 1011.5
20260905182335 32 221 3.2 3.2 0.00 0.00 0.00 76 1011.5
20260905181831 32 180 1.6 4.8 0.00 0.00 0.00 75 1011.7
20260905181330 32 201 9.7 11.3 0.00 0.00 0.00 75 1011.9
20260905180829 32 217 1.6 3.2 0.00 0.00 0.00 74 1011.8
20260905180325 32 219 6.4 9.7 0.00 0.00 0.00 74 1011.9
20260905175820 32 223 1.6 3.2 0.00 0.00 0.00 74 1012.0
20260905175320 32 232 1.6 3.2 0.00 0.00 0.00 74 1012.0
20260905174815 32 209 0.0 1.6 0.00 0.00 0.00 73 1012.2
20260905174311 33 225 3.2 3.2 0.00 0.00 0.00 73 1012.0
20260905173807 32 233 0.0 1.6 0.00 0.00 0.00 73 1012.2
20260905173303 32 230 1.6 3.2 0.00 0.00 0.00 73 1012.4
20260905172802 32 127 0.0 3.2 0.00 0.00 0.00 74 1012.4
20260905172301 32 227 0.0 3.2 0.00 0.00 0.00 74 1012.6
20260905171757 32 101 3.2 3.2 0.00 0.00 0.00 74 1012.8
20260905171253 32 215 3.2 4.8 0.00 0.00 0.00 74 1012.6
20260905170749 32 223 1.6 9.7 0.00 0.00 0.00 74 1012.6
20260905170245 32 204 1.6 1.6 0.00 0.00 0.00 74 1012.6
20260905165744 32 199 0.0 1.6 0.00 0.00 0.00 74 1012.8
20260905165240 32 215 0.0 11.3 0.00 0.00 0.00 75 1012.9
20260905164739 32 193 0.0 4.8 0.00 0.00 0.00 74 1013.1
20260905164235 32 258 0.0 9.7 0.00 0.00 0.00 74 1013.2
20260905163730 32 196 1.6 8.0 0.00 0.00 0.00 75 1013.2
20260905163227 32 166 0.0 4.8 0.00 0.00 0.00 76 1013.3
20260905162722 32 201 1.6 8.0 0.00 0.00 0.00 76 1013.2
20260905162222 32 203 1.6 3.2 0.00 0.00 0.00 76 1013.5
20260905161717 32 178 4.8 11.3 0.00 0.00 0.00 76 1013.7
20260905161215 32 188 4.8 9.7 0.00 0.00 0.00 77 1013.6
20260905160713 32 232 3.2 4.8 0.00 0.00 0.00 77 1013.7
20260905160208 32 202 0.0 3.2 0.00 0.00 0.00 78 1014.0
20260905155702 31 24 1.6 3.2 0.00 0.00 0.00 78 1013.8
20260905155202 32 224 1.6 1.6 0.00 0.00 0.00 78 1014.0
20260905154655 32 209 3.2 4.8 0.00 0.00 0.00 78 1013.8
20260905154151 32 187 3.2 8.0 0.00 0.00 0.00 79 1014.1
20260905153647 31 208 1.6 8.0 0.00 0.00 0.00 79 1014.0
20260905153142 31 170 1.6 3.2 0.00 0.00 0.00 80 1014.1
20260905152637 31 162 0.0 1.6 0.00 0.00 0.00 80 1014.0
20260905152131 31 190 1.6 1.6 0.00 0.00 0.00 80 1014.2
20260905151626 31 170 0.0 1.6 0.00 0.00 0.00 81 1014.0
20260905151122 31 165 0.0 4.8 0.00 0.00 0.00 82 1014.1
20260905150617 31 115 0.0 3.2 0.00 0.00 0.00 83 1014.1
20260905150116 31 161 1.6 3.2 0.00 0.00 0.00 84 1014.1
20260905145615 30 211 3.2 3.2 0.00 0.00 0.00 85 1014.3
20260905145114 30 234 3.2 4.8 0.00 0.00 0.00 86 1014.1
20260905144609 30 175 0.0 1.6 0.00 0.00 0.00 86 1014.2
20260905144108 30 115 1.6 3.2 0.00 0.00 0.00 86 1014.4
20260905143608 30 167 0.0 1.6 0.00 0.00 0.00 86 1014.1
20260905143103 30 156 1.6 3.2 0.00 0.00 0.00 86 1014.1
20260905142601 30 175 0.0 1.6 0.00 0.00 0.00 86 1014.2
20260905142055 30 190 1.6 4.8 0.00 0.00 0.00 87 1014.0
20260905141550 30 186 1.6 3.2 0.00 0.00 0.00 88 1014.0
20260905141047 30 138 0.0 1.6 0.00 0.00 0.00 88 1014.1
20260905140542 30 161 0.0 3.2 0.00 0.00 0.00 88 1014.2
20260905140041 30 149 0.0 3.2 0.00 0.00 0.00 88 1013.9
20260905135537 29 190 3.2 3.2 0.00 0.00 0.00 89 1014.1
20260905135036 29 186 0.0 1.6 0.00 0.00 0.00 90 1014.2
20260905134531 29 177 0.0 1.6 0.00 0.00 0.00 90 1014.1
20260905134030 29 118 0.0 1.6 0.00 0.00 0.00 90 1014.2
20260905133526 29 165 1.6 3.2 0.00 0.00 0.00 92 1014.0
20260905133025 28 197 1.6 1.6 0.00 0.00 0.00 93 1014.5
20260905132525 28 128 0.0 0.0 0.00 0.00 0.00 93 1014.3
20260905132020 28 152 0.0 1.6 0.00 0.00 0.00 93 1014.4
20260905131515 28 145 1.6 3.2 0.00 0.00 0.00 94 1014.2
20260905131010 28 119 1.6 3.2 0.00 0.00 0.00 95 1014.4
20260905130509 27 164 0.0 1.6 0.00 0.00 0.00 95 1014.4
20260905130004 27 112 0.0 1.6 0.00 0.00 0.00 96 1014.8
20260905125458 27 118 0.0 1.6 0.00 0.00 0.00 96 1014.5
20260905124954 27 140 0.0 1.6 0.00 0.00 0.00 96 1014.5
20260905124451 26 140 0.0 0.0 0.00 0.00 0.00 96 1014.3
20260905123946 26 139 0.0 3.2 0.00 0.00 0.00 96 1014.4
20260905123442 26 144 0.0 1.6 0.00 0.00 0.00 96 1014.1
20260905122937 26 133 0.0 0.0 0.00 0.00 0.00 95 1014.3
20260905122437 25 140 0.0 0.0 0.00 0.00 0.00 95 1014.2
20260905121932 25 139 0.0 0.0 0.00 0.00 0.00 95 1014.2
20260905121428 25 139 0.0 0.0 0.00 0.00 0.00 95 1014.2
20260905120926 25 140 0.0 0.0 0.00 0.00 0.00 95 1014.3
20260905120421 25 144 0.0 0.0 0.00 0.00 0.00 95 1014.1
20260905115917 25 148 0.0 0.0 0.00 0.00 0.00 95 1014.1
20260905115416 25 157 0.0 0.0 0.00 0.00 0.00 95 1014.2
20260905114911 25 159 0.0 0.0 0.00 0.00 0.00 95 1014.1